| time (UTC) | temp F | wind direction | speed MPH | gust MPH | rain 1hr in | rain 24hr in | rain mn in | humidity % | barometer mb |
| 20260503214535 | 70 | 122 | 0.0 | 6.0 | 0.00 | 0.00 | 0.00 | 39 | 1016.2 |
| 20260503213039 | 69 | 102 | 1.0 | 6.0 | 0.00 | 0.00 | 0.00 | 38 | 1016.9 |
| 20260503213015 | 69 | 102 | 1.0 | 6.0 | 0.00 | 0.00 | 0.00 | 39 | 1016.3 |
| 20260503211557 | 69 | 149 | 1.0 | 6.0 | 0.00 | 0.00 | 0.00 | 38 | 1017.0 |
| 20260503211513 | 69 | 147 | 2.0 | 6.0 | 0.00 | 0.00 | 0.00 | 38 | 1016.5 |
| 20260503210037 | 69 | 146 | 1.0 | 7.0 | 0.00 | 0.00 | 0.00 | 39 | 1017.2 |
| 20260503210010 | 69 | 153 | 0.0 | 7.0 | 0.00 | 0.00 | 0.00 | 39 | 1016.6 |
| 20260503204538 | 68 | 0 | 3.0 | 7.0 | 0.00 | 0.00 | 0.00 | 41 | 1017.3 |
| 20260503204507 | 68 | 137 | 2.0 | 7.0 | 0.00 | 0.00 | 0.00 | 42 | 1016.8 |
| 20260503203036 | 68 | 146 | 1.0 | 5.0 | 0.00 | 0.00 | 0.00 | 39 | 1017.9 |
| 20260503203004 | 68 | 148 | 0.0 | 5.0 | 0.00 | 0.00 | 0.00 | 39 | 1017.1 |
| 20260503201534 | 67 | 155 | 5.0 | 10.0 | 0.00 | 0.00 | 0.00 | 43 | 1018.2 |
| 20260503201502 | 67 | 163 | 3.0 | 10.0 | 0.00 | 0.00 | 0.00 | 44 | 1017.4 |
| 20260503200118 | 67 | 149 | 2.0 | 6.0 | 0.00 | 0.00 | 0.00 | 43 | 1017.7 |
| 20260503194604 | 66 | 148 | 5.0 | 8.0 | 0.00 | 0.00 | 0.00 | 44 | 1018.1 |
| 20260503194536 | 66 | 144 | 5.0 | 8.0 | 0.00 | 0.00 | 0.00 | 43 | 1018.7 |
| 20260503193104 | 66 | 154 | 1.0 | 8.0 | 0.00 | 0.00 | 0.00 | 43 | 1018.4 |
| 20260503193038 | 66 | 114 | 3.0 | 8.0 | 0.00 | 0.00 | 0.00 | 42 | 1019.0 |
| 20260503191606 | 65 | 127 | 2.0 | 8.0 | 0.00 | 0.00 | 0.00 | 41 | 1018.7 |
| 20260503191537 | 66 | 146 | 4.0 | 8.0 | 0.00 | 0.00 | 0.00 | 40 | 1019.2 |
| 20260503190037 | 66 | 111 | 1.0 | 4.0 | 0.00 | 0.00 | 0.00 | 41 | 1019.5 |
| 20260503184616 | 65 | 108 | 0.0 | 6.0 | 0.00 | 0.00 | 0.00 | 41 | 1019.0 |
| 20260503184539 | 65 | 113 | 1.0 | 6.0 | 0.00 | 0.00 | 0.00 | 42 | 1019.6 |
| 20260503183053 | 65 | 105 | 0.0 | 4.0 | 0.00 | 0.00 | 0.00 | 39 | 1019.2 |
| 20260503183039 | 65 | 117 | 0.0 | 9.0 | 0.00 | 0.00 | 0.00 | 38 | 1019.8 |
| 20260503181612 | 63 | 173 | 3.0 | 7.0 | 0.00 | 0.00 | 0.00 | 38 | 1020.0 |
| 20260503181610 | 63 | 175 | 1.0 | 7.0 | 0.00 | 0.00 | 0.00 | 39 | 1019.5 |
| 20260503180111 | 62 | 147 | 4.0 | 8.0 | 0.00 | 0.00 | 0.00 | 42 | 1019.7 |
| 20260503180040 | 63 | 146 | 4.0 | 8.0 | 0.00 | 0.00 | 0.00 | 41 | 1020.3 |
| 20260503174556 | 64 | 150 | 1.0 | 5.0 | 0.00 | 0.00 | 0.00 | 41 | 1019.9 |
| 20260503174532 | 64 | 148 | 0.0 | 5.0 | 0.00 | 0.00 | 0.00 | 41 | 1020.5 |
| 20260503173058 | 62 | 150 | 1.0 | 8.0 | 0.00 | 0.00 | 0.00 | 45 | 1020.2 |
| 20260503173044 | 62 | 146 | 3.0 | 8.0 | 0.00 | 0.00 | 0.00 | 44 | 1020.6 |
| 20260503171548 | 62 | 124 | 0.0 | 6.0 | 0.00 | 0.00 | 0.00 | 43 | 1020.3 |
| 20260503171536 | 62 | 144 | 1.0 | 6.0 | 0.00 | 0.00 | 0.00 | 42 | 1020.8 |
| 20260503081540 | 41 | 101 | 0.0 | 0.0 | 0.00 | 0.00 | 0.00 | 63 | 1018.7 |
| 20260503081538 | 41 | 0 | 0.0 | 0.0 | 0.00 | 0.00 | 0.00 | 63 | 1019.3 |
| 20260503071535 | 42 | 0 | 0.0 | 0.0 | 0.00 | 0.00 | 0.00 | 71 | 1018.7 |
| 20260503071521 | 42 | 101 | 0.0 | 0.0 | 0.00 | 0.00 | 0.00 | 71 | 1018.1 |
| 20260503054532 | 44 | 0 | 0.0 | 1.0 | 0.00 | 0.00 | 0.00 | 83 | 1018.6 |
| 20260503054515 | 44 | 102 | 0.0 | 0.0 | 0.00 | 0.00 | 0.00 | 83 | 1017.8 |
| 20260503053040 | 45 | 0 | 0.0 | 0.0 | 0.00 | 0.00 | 0.00 | 83 | 1018.5 |
| 20260503053007 | 45 | 98 | 0.0 | 0.0 | 0.00 | 0.00 | 0.00 | 84 | 1017.8 |
| 20260503051533 | 45 | 0 | 0.0 | 0.0 | 0.00 | 0.00 | 0.00 | 83 | 1018.5 |
| 20260503051502 | 45 | 98 | 0.0 | 0.0 | 0.00 | 0.00 | 0.00 | 84 | 1017.6 |
| 20260503050101 | 46 | 98 | 0.0 | 0.0 | 0.00 | 0.00 | 0.00 | 83 | 1017.5 |
| 20260503050036 | 46 | 0 | 0.0 | 0.0 | 0.00 | 0.00 | 0.00 | 82 | 1018.3 |
| 20260503044609 | 47 | 99 | 0.0 | 1.0 | 0.00 | 0.00 | 0.00 | 81 | 1017.5 |
| 20260503044603 | 47 | 0 | 0.0 | 1.0 | 0.00 | 0.00 | 0.00 | 80 | 1018.4 |
| 20260503043058 | 48 | 102 | 0.0 | 0.0 | 0.00 | 0.00 | 0.00 | 79 | 1017.4 |
| 20260503043030 | 48 | 0 | 0.0 | 0.0 | 0.00 | 0.00 | 0.00 | 79 | 1018.3 |
| 20260503041554 | 48 | 155 | 0.0 | 1.0 | 0.00 | 0.00 | 0.00 | 80 | 1017.4 |
| 20260503041536 | 48 | 133 | 0.0 | 1.0 | 0.00 | 0.00 | 0.00 | 79 | 1018.4 |
| 20260503040100 | 49 | 97 | 0.0 | 0.0 | 0.00 | 0.00 | 0.00 | 77 | 1017.4 |
| 20260503040034 | 49 | 0 | 0.0 | 0.0 | 0.00 | 0.00 | 0.00 | 76 | 1018.2 |
| 20260503034558 | 50 | 97 | 0.0 | 0.0 | 0.00 | 0.00 | 0.00 | 75 | 1017.3 |
| 20260503034539 | 50 | 0 | 0.0 | 0.0 | 0.00 | 0.00 | 0.00 | 75 | 1018.1 |
| 20260503033050 | 51 | 176 | 0.0 | 0.0 | 0.00 | 0.00 | 0.00 | 72 | 1017.0 |
| 20260503033039 | 51 | 0 | 0.0 | 0.0 | 0.00 | 0.00 | 0.00 | 71 | 1017.7 |
| 20260503031548 | 52 | 179 | 0.0 | 0.0 | 0.00 | 0.00 | 0.00 | 69 | 1017.1 |
| 20260503031533 | 52 | 0 | 0.0 | 2.0 | 0.00 | 0.00 | 0.00 | 68 | 1017.9 |
| 20260503030113 | 53 | 148 | 1.0 | 4.0 | 0.00 | 0.00 | 0.00 | 66 | 1017.1 |
| 20260503030041 | 53 | 153 | 0.0 | 4.0 | 0.00 | 0.00 | 0.00 | 65 | 1017.9 |
| 20260503024547 | 54 | 174 | 0.0 | 7.0 | 0.00 | 0.00 | 0.00 | 65 | 1017.1 |
| 20260503024536 | 54 | 0 | 1.0 | 7.0 | 0.00 | 0.00 | 0.00 | 65 | 1017.8 |
| 20260503023046 | 54 | 152 | 3.0 | 8.0 | 0.00 | 0.00 | 0.00 | 67 | 1017.2 |
| 20260503023040 | 54 | 146 | 4.0 | 11.0 | 0.00 | 0.00 | 0.00 | 64 | 1017.9 |
| 20260503021545 | 55 | 174 | 4.0 | 13.0 | 0.00 | 0.00 | 0.00 | 62 | 1017.1 |
| 20260503021536 | 55 | 90 | 3.0 | 13.0 | 0.00 | 0.00 | 0.00 | 62 | 1017.8 |
| 20260503020042 | 56 | 159 | 1.0 | 7.0 | 0.00 | 0.00 | 0.00 | 62 | 1016.7 |
| 20260503020036 | 56 | 151 | 2.0 | 7.0 | 0.00 | 0.00 | 0.00 | 62 | 1017.5 |
| 20260503014552 | 56 | 141 | 1.0 | 7.0 | 0.00 | 0.00 | 0.00 | 58 | 1016.3 |
| 20260503014538 | 56 | 142 | 2.0 | 7.0 | 0.00 | 0.00 | 0.00 | 58 | 1017.1 |
| 20260503013036 | 55 | 0 | 1.0 | 5.0 | 0.00 | 0.00 | 0.00 | 62 | 1016.7 |
| 20260503011538 | 53 | 0 | 0.0 | 4.0 | 0.00 | 0.00 | 0.00 | 67 | 1016.4 |
| 20260503010039 | 53 | 0 | 0.0 | 0.0 | 0.00 | 0.00 | 0.00 | 68 | 1016.1 |
| 20260503010032 | 53 | 116 | 0.0 | 0.0 | 0.00 | 0.00 | 0.00 | 68 | 1015.2 |
| 20260503004534 | 54 | 0 | 0.0 | 0.0 | 0.00 | 0.00 | 0.00 | 64 | 1015.9 |
| 20260503004531 | 54 | 116 | 0.0 | 0.0 | 0.00 | 0.00 | 0.00 | 65 | 1014.9 |
| 20260503003038 | 55 | 0 | 0.0 | 0.0 | 0.00 | 0.00 | 0.00 | 58 | 1015.7 |
| 20260503003030 | 55 | 116 | 0.0 | 0.0 | 0.00 | 0.00 | 0.00 | 58 | 1014.8 |
| 20260503001549 | 57 | 0 | 0.0 | 0.0 | 0.00 | 0.00 | 0.00 | 54 | 1015.5 |
| 20260503001530 | 57 | 117 | 0.0 | 1.0 | 0.00 | 0.00 | 0.00 | 56 | 1014.7 |
| 20260503000048 | 59 | 0 | 0.0 | 2.0 | 0.00 | 0.00 | 0.00 | 51 | 1015.3 |
| 20260503000033 | 59 | 96 | 0.0 | 1.0 | 0.00 | 0.00 | 0.00 | 52 | 1014.4 |
| 20260502234549 | 61 | 0 | 0.0 | 4.0 | 0.00 | 0.00 | 0.00 | 46 | 1015.0 |
| 20260502234529 | 61 | 159 | 0.0 | 4.0 | 0.00 | 0.00 | 0.00 | 46 | 1014.2 |
| 20260502233033 | 62 | 0 | 1.0 | 5.0 | 0.00 | 0.00 | 0.00 | 43 | 1014.9 |
| 20260502233028 | 62 | 93 | 0.0 | 4.0 | 0.00 | 0.00 | 0.00 | 43 | 1014.1 |
| 20260502231534 | 62 | 169 | 1.0 | 8.0 | 0.00 | 0.00 | 0.00 | 42 | 1015.0 |
| 20260502231527 | 62 | 150 | 0.0 | 8.0 | 0.00 | 0.00 | 0.00 | 43 | 1014.1 |
| 20260502230035 | 63 | 150 | 2.0 | 9.0 | 0.00 | 0.00 | 0.00 | 41 | 1014.8 |
| 20260502230028 | 63 | 153 | 2.0 | 9.0 | 0.00 | 0.00 | 0.00 | 42 | 1013.9 |
| 20260502224539 | 64 | 176 | 1.0 | 11.0 | 0.00 | 0.00 | 0.00 | 40 | 1014.7 |
| 20260502224527 | 64 | 176 | 1.0 | 9.0 | 0.00 | 0.00 | 0.00 | 41 | 1014.0 |
| 20260502223042 | 64 | 167 | 1.0 | 8.0 | 0.00 | 0.00 | 0.00 | 41 | 1015.0 |
| 20260502223026 | 64 | 169 | 2.0 | 8.0 | 0.00 | 0.00 | 0.00 | 41 | 1014.1 |
| 20260502221536 | 63 | 169 | 1.0 | 8.0 | 0.00 | 0.00 | 0.00 | 41 | 1014.8 |
| 20260502221525 | 63 | 169 | 0.0 | 8.0 | 0.00 | 0.00 | 0.00 | 41 | 1014.0 |
| 20260502220039 | 63 | 148 | 3.0 | 8.0 | 0.00 | 0.00 | 0.00 | 44 | 1014.7 |
| 20260502220026 | 63 | 146 | 3.0 | 7.0 | 0.00 | 0.00 | 0.00 | 45 | 1013.8 |